www.pogodaiklimat.ru

Погода и климат >> Архив погоды >> Россия >> Кабардино-Балкария >> Прохладный


ПОГОДА в Прохладный

  • Прогноз погоды в Прохладный
  • Монитор погоды в Прохладный

АРХИВ ПОГОДЫ в Прохладный

Время (UTC), дата Ветер
(напр.,м/с)
 
Видим.   Явления Облачность Т
(С)
Тd
(С)
f
(%)
Тe
(С)
Тes
(С)
Комфортность P
(гПа)
Po
(гПа)
Тmin
(С)
Tmax
(С)
R
(мм)
R24
(мм)
S
(см)
12 18.05 В 3 20 км 3/0
[Ci fib]
+26.8 +14.7 47 +29 +38 жарко 1008.0 985.5
15 18.05 В 1 20 км 8/0
[Cs]
+25.6 +15.9 55 +29 +30 душно 1008.0 985.4 +27.2
18 18.05 СВ 2 20 км 8/0
[Ci fib]
+20.9 +12.9 60 +24 +24 комфорт 1007.7 984.7
21 18.05 СВ 2 20 км 3/0
[Ci fib]
+17.0 +12.2 73 +17 +17 1007.6 984.2
00 19.05 СВ 1 4000 м дымка 1/0
[Ci fib]
+14.7 +13.3 91 +15 +15 1008.2 984.6
03 19.05 В 2 4000 м дымка 10/10 600 м
[Sc]
+14.8 +14.3 97 +14 +14 1009.0 985.4 +14.1
06 19.05 СВ 1 4000 м дымка 10/10 600 м
[Sc]
+16.6 +15.2 91 +17 +17 1009.2 985.9
09 19.05 СВ 3 20 км 8/0
[Ac lent]
+23.6 +15.0 59 +26 +32 жарко 1008.4 985.6
12 19.05 СВ 2 20 км 9/6 600 м
[Cb cap Ac lent]
+26.3 +14.2 47 +29 +30 жарко 1009.5 986.8
15 19.05 ЮЗ 1 20 км 10/8 600 м
[Cb cap Cc]
+24.8 +15.6 57 +28 +28 жарко 1010.0 987.3 +26.8
18 19.05 СЗ 1 20 км 8/8 600 м
[Cb cap]
+21.0 +15.8 72 +26 +26 душно 1011.7 988.6
21 19.05 З 1 20 км 6/0
[Ac lent]
+18.4 +16.0 86 +20 +20 1011.4 988.1
00 20.05 штиль 0 4000 м дымка 10/10 600 м
[Sc]
+17.1 +16.0 93 +17 +17 1012.2 988.8
03 20.05 С 1 4000 м дымка 10/10 600 м
[Sc]
+17.1 +16.5 96 +18 +18 1012.5 989.1 +16.4
06 20.05 З 1 20 км 10/10 1000 м
[Sc]
+20.9 +16.5 76 +26 +26 душно 1014.2 991.1
09 20.05 ЮВ 1 20 км 10/10 600 м
[Cb cap]
+23.3 +16.7 66 +28 +28 душно 1014.5 991.5
12 20.05 ЮЗ 1 20 км {гроза} 10/10 600 м
[Cb cap]
+21.1 +15.0 68 +24 +24 комфорт 1015.5 992.3
15 20.05 З 1 20 км 8/8 600 м
[Cb cap]
+21.7 +14.9 65 +25 +25 комфорт 1016.0 992.9 +23.4
18 20.05 ЮЗ 1 20 км 10/10 600 м
[Sc]
+19.5 +14.2 71 +22 +22 комфорт 1016.7 993.4
21 20.05 штиль 0 4000 м 8/8 600 м
[Cb cap]
+16.7 +15.6 93 +17 +17 1016.9 993.4
00 21.05 С 2 4000 м дымка 4/4 600 м
[Sc]
+13.5 +11.2 86 +13 +13 1017.8 994.0
03 21.05 СЗ 1 20 км 3/0
[Ac trans]
+12.8 +8.1 73 +13 +14 1019.4 995.4 +11.0
06 21.05 С 1 20 км ясно +20.0 +10.9 56 +23 +36 комфорт 1018.9 995.5
09 21.05 В 3 20 км 4/0
[Ac trans]
+25.0 +13.8 50 +27 +39 жарко 1018.1 995.2
12 21.05 В 3 20 км 3/3 600 м
[Cu med, cong Ac trans]
+26.7 +8.1 31 +27 +34 жарко 1017.2 994.3
15 21.05 В 4 20 км 3/3 600 м
[Cu med, cong]
+23.7 +8.7 38 +24 +25 комфорт 1017.3 994.2 +26.9
18 21.05 В 3 20 км ясно +17.6 +8.7 56 +18 +18 1018.6 995.0
21 21.05 В 2 20 км ясно +13.4 +8.3 71 +13 +13 1019.3 995.4
00 22.05 СВ 2 4000 м дымка ясно +10.7 +9.2 90 +9 +9 1018.2 994.1
03 22.05 СВ 1 4000 м дымка 4/0
[Ac trans]
+10.6 +9.6 94 +10 +11 1017.6 993.5 +10.0
06 22.05 СВ 2 20 км 9/3 600 м
[Sc Ac cast]
+16.2 +10.3 68 +16 +20 1016.0 992.4
09 22.05 СВ 2 20 км 8/3 600 м
[Sc Ac cast Cc]
+20.9 +11.5 55 +24 +32 комфорт 1013.7 990.6
12 22.05 СВ 1 20 км 10/10 600 м
[Sc]
+21.3 +11.4 53 +23 +23 комфорт 1013.3 990.2
15 22.05 З 1 4000 м в посл. час ливневой дождь 10/10 600 м
[Cb cap]
+16.5 +15.9 96 +17 +17 1015.6 992.0 +22.6 3
18 22.05 ЮВ 1 4000 м дымка {ливн. осадки} 4/3 600 м
[Sc Ac cast]
+15.3 +15.1 99 +16 +16 1015.7 992.1
21 22.05 штиль 0 4000 м дымка 1/0
[Ac cast]
+13.4 +13.4 100 +13 +13 1014.9 991.1
00 23.05 ЮЗ 1 500 м туман ?/? +13.1 +13.1 100 +13 +13 1014.4 990.6
03 23.05 ЮЗ 1 4000 м дымка {туман} 3/0
[Ac cast]
+12.6 +12.6 100 +12 +14 1014.6 990.8 +11.4 0.5
06 23.05 Ю 1 20 км {туман} 10/4 600 м
[Cb cap Cs]
+19.3 +13.6 70 +22 +28 комфорт 1013.4 990.2
09 23.05 ЮВ 2 20 км 8/3 600 м
[Cb cap Cs]
+23.4 +13.5 54 +27 +38 душно 1011.8 988.8
12 23.05 В 2 20 км 8/4 600 м
[Cb cap Ci sp]
+25.7 +8.9 35 +26 +32 жарко 1009.9 987.1
15 23.05 С 2 10 км слаб. ливневой дождь 10/10 600 м
[Cb cap]
+16.1 +12.8 81 +16 +16 1012.1 988.6 +26.3 0.3
18 23.05 ЮЗ 2 4000 м слаб. ливневой дождь 10/10 600 м
[Cb cap]
+14.7 +14.6 99 +14 +14 1014.6 990.9
21 23.05 ЮВ 1 4000 м дымка {ливн. осадки} 10/10 600 м
[Cb cap]
+14.7 +14.2 97 +15 +15 1014.5 990.8
00 24.05 Ю 1 4000 м дымка {ливн. осадки} 4/4 600 м
[Sc]
+14.3 +13.4 94 +15 +15 1013.1 989.4
03 24.05 Ю 2 4000 м дымка 6/6 600 м
[Sc]
+15.1 +13.4 90 +15 +15 1013.0 989.4 +13.8 8
06 24.05 Ю 1 20 км 1/0
[Ac cast]
+21.3 +13.4 61 +24 +36 комфорт 1012.4 989.3
09 24.05 ЮВ 2 20 км 4/3 600 м
[Cu med, cong Ac cast Cs]
+25.0 +9.2 37 +26 +38 жарко 1011.2 988.4
12 24.05 В 2 20 км 6/3 600 м
[Cu hum Ac cast Cs]
+25.9 +9.8 36 +27 +33 жарко 1010.7 988.0
15 24.05 В 2 20 км 4/0
[Ac cast Ci fib]
+24.8 +10.5 41 +26 +27 жарко 1010.6 987.8 +26.9
18 24.05 В 1 20 км 3/0
[Ci fib]
+19.6 +11.8 61 +22 +22 комфорт 1011.2 988.0
21 24.05 Ю 1 20 км 1/0
[Ci fib]
+16.7 +12.8 78 +18 +18 1011.1 987.7
00 25.05 ЮЗ 1 4000 м дымка 8/5 600 м
[Sc Ac lent]
+14.9 +13.4 91 +15 +15 1011.0 987.4
03 25.05 штиль 0 4000 м дымка 4/1 600 м
[Sc diur, vesp Ac cast Ci sp]
+15.9 +14.1 89 +16 +17 1010.2 986.7 +14.1
06 25.05 В 1 20 км 9/0
[Ac trans]
+23.1 +11.9 49 +26 +32 жарко 1008.7 985.8

 

Местоположение метеостанции Прохладный (Кабардино-Балкария, Россия): широта 43.75 долгота 44.05 высота над уровнем моря 200 м.

В архиве по умолчанию представлена погода в Прохладный за последнюю неделю. Архивные данные за месяц целиком и за предыдущие месяцы, начиная с января 2011 года, Вы можете получить, выбрав интересующий диапазон дат из раскрывающегося списка и нажав кнопку "Ввод!".


*Определитесь, кто Вы:
робот инопланетянин человек

Внимание! Время в таблицах - всемирное. Для получения местного времени необходимо прибавить поправку, которая равна 3 ч.

Смотрите также архив погоды в соседних городах и на ближайших метеорологических станциях:

Погода в Нальчике (Кабардино-Балкария, Россия) (42 км)
Погода в Моздоке (Северная Осетия, Россия) (50 км)
Погода в Георгиевске (Ставропольский край, Россия) (64 км)
Погода в Зеленокумске (Ставропольский край, Россия) (77 км)
Погода в Алагире (Северная Осетия, Россия) (77 км)
Погода в Минеральных Водах (Ставропольский край, Россия) (92 км)
Погода в Назрани (Ингушетия, Россия) (93 км)
Погода в Владикавказе (Северная Осетия, Россия) (95 км)
Погода в Тырныаузе (Кабардино-Балкария, Россия) (100 км)
Погода в Рощино (Ставропольский край, Россия) (102 км)

Пояснения к столбцам:

Ветер - указаны скорость ветра в м/с - средняя за 10 мин, порывы в срок и между сроками (в фигурных скобках) и направление, откуда дует ветер: С - северный, СВ - северо-восточный, В - восточный, ЮВ - юго-восточный, Ю - южный, ЮЗ - юго-западный, З - западный, СЗ - северо-западный.
Видимость - горизонтальная дальность видимости в метрах или километрах. При видимости от 1 до 10 км при отсутствии осадков обычно наблюдается дымка, при ухудшении видимости до 1 км и менее - туман. В сухую погоду видимость может ухудшаться дымом, пылью или мглою.
Явления - указаны атмосферные явления, наблюдавшиеся в срок или в последний час перед сроком; фигурными скобками обозначены явления, наблюдавшиеся между сроками (за 1-3 часа до срока); квадратными скобками обозначены град или гололедные отложения с указанием их диаметра в мм.
Облачность - указаны через наклонную черту общая и нижняя облачность в баллах и высота нижней границы облаков в метрах; квадратными скобками обозначены формы облаков: Ci - перистые, Cs - перисто-слоистые, Cc - перисто-кучевые, Ac - высококучевые, As - высокослоистые, Sc - слоисто-кучевые, Ns - слоисто-дождевые, Cu - кучевые, Cb - кучево-дождевые. Подробнее классификацию облаков см. в Атласе облаков (PDF).
T - Температура воздуха - температура, измеренная на высоте 2 м над землей.
Td - Температура точки росы - температура, при понижении до которой содержащийся в воздухе водяной пар достигнет насыщения.
f - Относительная влажность воздуха - влажноcть воздуха, измеренная на высоте 2 м над землей.
Te - Эффективная температура - температура, которую ощущает одетый по сезону человек в тени. Характеристика душности погоды. При расчете учитывается влияние влажности воздуха и скорости ветра на теплоощущения человека.
Tes - Эффективная температура на солнце - температура, которую ощущает человек, с поправкой на солнечный нагрев. Характеристика знойности погоды. Зависит от высоты солнца над горизонтом, облачности и скорости ветра. Ночью, в пасмурную погоду, а также при ветре 12 м/с и более поправка равна нулю.
P - Атмосферное давление - приведенное к уровню моря атмосферное давление.
Po - Атмосферное давление - измеренное на уровне метеостанции атмосферное давление.
Tmin - Минимальная температура - минимум температуры воздуха на высоте 2 м над землей.
Tmax - Максимальная температура - максимум температуры воздуха на высоте 2 м над землей.
R - Количество осадков - Количество выпавших осадков за период времени, мм. При наведении курсора мыши на число - период времени, за который выпало указанное количество осадков.
R24 - Количество осадков - Количество выпавших осадков за 24 часа, мм.
S - Снежный покров - Высота снежного покрова, см. При наведении курсора мыши на число - состояние снежного покрова и степень покрытия местности в баллах.